This demonstration page uses our WeatherBlox Daily Observations layout. Learn more.

Left ArrowRight Arrow

39.08367, -84.50855

Hourly Observations for April 29, 2020

Temp ( °F °C ) Dew Point ( °F °C ) Humidity (%) Winds ( mph kmh ) Pressure ( in mb ) Visibility ( mi km ) Precip ( " mm )
12:53 am 00:53 Cloudy 64 17.8 48 8.9 56 56 S 8 13 29.80 1009 10 16 0.00 0.00
1:53 am 01:53 Mostly Cloudy 64 17.8 47 8.3 54 54 SSW 10 17 29.77 1008 10 16 0.00 0.00
2:53 am 02:53 Cloudy 65 18.3 47 8.3 52 52 S 9 15 29.73 1007 10 16 0.00 0.00
3:53 am 03:53 Cloudy 62 16.7 49 9.4 62 62 SSW 6 9 29.72 1006 10 16 0.00 0.00
4:53 am 04:53 Partly Cloudy 62 16.7 47 8.3 58 58 S 6 9 29.69 1005 10 16 0.00 0.00
5:53 am 05:53 Cloudy 64 17.8 48 8.9 56 56 S 10 17 29.68 1005 10 16 0.00 0.00
6:53 am 06:53 Cloudy 63 17.2 52 11.1 68 68 S 16 26 29.67 1005 10 16 0.00 0.00
7:53 am 07:53 Mostly Cloudy 63 17.2 51 10.6 65 65 S 16 26 29.63 1003 10 16 0.00 0.00
8:53 am 08:53 Cloudy 63 17.2 51 10.6 65 65 SSE 15 24 29.60 1002 10 16 0.00 0.00
9:53 am 09:53 Mostly Cloudy 67 19.4 51 10.6 57 57 S 18 30 29.55 1001 10 16 0.00 0.00
10:53 am 10:53 Cloudy 69 20.6 50 10 51 51 SSW 17 28 29.56 1001 10 16 0.00 0.00
11:53 am 11:53 Cloudy 66 18.9 55 12.8 68 68 SW 13 20 29.59 1002 10 16 0.00 0.00
12:14 pm 12:14 Cloudy 66 18.9 56 13.3 70 70 WSW 16 26 29.59 1002 10 16 0.00 0.00
12:53 pm 12:53 Cloudy 67 19.4 56 13.3 68 68 WSW 15 24 29.58 1002 10 16 0.00 0.00
1:24 pm 13:24 Cloudy with Nearby Thunderstorms 57 13.9 52 11.1 83 83 W 15 24 29.64 1004 3 5 0.03 0.76
1:39 pm 13:39 Cloudy with Rain 57 13.9 54 12.2 90 90 W 8 13 29.64 1004 3 5 0.07 1.78
1:53 pm 13:53 Cloudy with Light Rain 57 13.9 54 12.2 90 90 WSW 10 17 29.63 1004 10 16 0.08 2.03
2:53 pm 14:53 Cloudy 60 15.6 55 12.8 84 84 SSW 7 11 29.63 1003 10 16 0.00 0.00
3:53 pm 15:53 Cloudy with Light Rain 59 15 55 12.8 87 87 SSE 8 13 29.64 1004 10 16 0.00 0.00
4:53 pm 16:53 Cloudy 58 14.4 55 12.8 90 90 S 10 17 29.67 1005 10 16 0.01 0.25
5:53 pm 17:53 Cloudy 56 13.3 53 11.7 90 90 SE 13 20 29.61 1003 10 16 0.00 0.00
6:53 pm 18:53 Mostly Cloudy 56 13.3 51 10.6 84 84 SSW 12 19 29.69 1006 10 16 0.00 0.00
7:53 pm 19:53 Mostly Sunny 55 12.8 50 10 83 83 S 7 11 29.67 1005 10 16 0.00 0.00
8:53 pm 20:53 Mostly Cloudy 53 11.7 49 9.4 86 86 S 10 17 29.69 1005 10 16 0.00 0.00
9:53 pm 21:53 Clear 52 11.1 49 9.4 89 89 S 13 20 29.66 1004 10 16 0.00 0.00
10:53 pm 22:53 Mostly Cloudy 53 11.7 50 10 89 89 S 9 15 29.65 1004 10 16 0.00 0.00
11:53 pm 23:53 Cloudy 54 12.2 50 10 87 87 SW 10 17 29.67 1005 10 16 0.00 0.00

Powered by AerisWeather